Location: La Comballaz
(46.3780°N, 7.0817°E)
Time: 07:21:49
(UTC+00:00)

Meteor 2-10 Rocket - Pass Details

Date: 09 April 2020
Orbit: 734 x 885 km, 81.2° (Epoch: 02 June)

Event Time Altitude Azimuth Distance (km) Brightness Sun altitude
Exits shadow 20:33:51 50° 99° (E) 1,007 3.7 -22.6°
Maximum altitude 20:33:58 50° 94° (E) 1,006 3.7 -22.6°
Drops below altitude 10° 20:39:12 10° 21° (NNE) 2,417 6.3 -23.3°
Sets 20:41:43 0° 16° (NNE) 3,379 7.2 -23.6°
